ITY425 LIMJ-LIRF

Flight info

Callsign ITY425
Flight time 0h 49m
Altitude 31000
Route UNITA DCT KONER DCT BAKRO DCT ELB DCT ELKAP
Aircraft A320/M-SDE3FGHIRWY/LB1

Departure

Time 2026-04-17 12:28
Airport Genoa Cristoforo Colombo Airport (LIMJ)

Arrival

Time 2026-04-17 13:18
Airport Rome–Fiumicino Leonardo da Vinci International Airport (LIRF)
Time Latitude Longitude Altitude Speed Heading
2026-04-17 12:09 44.41421 8.85034 20 ft 0 kts 15°
2026-04-17 12:13 44.41420 8.85034 20 ft 0 kts 15°
2026-04-17 12:20 44.41418 8.85033 20 ft 3 kts 15°
2026-04-17 12:21 44.41398 8.85026 24 ft 3 kts 15°
2026-04-17 12:21 44.41379 8.85018 22 ft 3 kts 15°
2026-04-17 12:21 44.41361 8.85006 22 ft 3 kts 48°
2026-04-17 12:21 44.41348 8.84984 23 ft 3 kts 76°
2026-04-17 12:22 44.41346 8.84971 23 ft 0 kts 92°
2026-04-17 12:25 44.41344 8.84998 20 ft 5 kts 98°
2026-04-17 12:25 44.41333 8.85059 20 ft 13 kts 105°
2026-04-17 12:25 44.41308 8.85190 20 ft 11 kts 105°
2026-04-17 12:25 44.41267 8.85268 20 ft 10 kts 145°
2026-04-17 12:26 44.41196 8.85268 20 ft 11 kts 195°
2026-04-17 12:26 44.41122 8.85240 20 ft 12 kts 195°
2026-04-17 12:26 44.41093 8.85230 19 ft 0 kts 195°
2026-04-17 12:27 44.41083 8.85224 19 ft 8 kts 204°
2026-04-17 12:27 44.41025 8.85134 16 ft 14 kts 243°
2026-04-17 12:27 44.41027 8.85047 19 ft 0 kts 286°
2026-04-17 12:27 44.41059 8.84885 20 ft 57 kts 285°
2026-04-17 12:28 44.41240 8.83953 20 ft 139 kts 285°
2026-04-17 12:28 44.41537 8.82412 346 ft 171 kts 285°
2026-04-17 12:28 44.41816 8.80807 1203 ft 171 kts 273°
2026-04-17 12:28 44.41534 8.79179 1783 ft 188 kts 238°
2026-04-17 12:29 44.40489 8.77990 2194 ft 204 kts 200°
2026-04-17 12:29 44.39073 8.77971 2752 ft 209 kts 159°
2026-04-17 12:29 44.37747 8.78866 3351 ft 213 kts 151°
2026-04-17 12:29 44.36438 8.79821 4082 ft 212 kts 151°
2026-04-17 12:30 44.35125 8.80779 4785 ft 213 kts 152°
2026-04-17 12:30 44.33776 8.81560 5491 ft 213 kts 169°
2026-04-17 12:30 44.32290 8.81622 6136 ft 215 kts 182°
2026-04-17 12:30 44.30785 8.81519 6781 ft 216 kts 182°
2026-04-17 12:31 44.29271 8.81417 7402 ft 219 kts 182°
2026-04-17 12:31 44.27759 8.81318 8029 ft 220 kts 182°
2026-04-17 12:31 44.26216 8.81216 8656 ft 222 kts 182°
2026-04-17 12:31 44.24657 8.81113 9274 ft 225 kts 182°
2026-04-17 12:32 44.23099 8.81010 9823 ft 231 kts 182°
2026-04-17 12:32 44.21470 8.80901 10368 ft 236 kts 183°
2026-04-17 12:32 44.19809 8.80789 10953 ft 239 kts 183°
2026-04-17 12:32 44.18139 8.80676 11551 ft 242 kts 183°
2026-04-17 12:33 44.16444 8.80562 12157 ft 245 kts 183°
2026-04-17 12:33 44.14722 8.80513 12763 ft 248 kts 174°
2026-04-17 12:33 44.13047 8.81135 13314 ft 254 kts 154°
2026-04-17 12:33 44.11545 8.82550 13494 ft 276 kts 139°
2026-04-17 12:34 44.10017 8.84356 13673 ft 300 kts 139°
2026-04-17 12:34 44.08358 8.86311 13839 ft 323 kts 139°
2026-04-17 12:34 44.06578 8.88399 13970 ft 346 kts 139°
2026-04-17 12:34 44.04682 8.90614 14187 ft 363 kts 139°
2026-04-17 12:35 44.02724 8.92894 14694 ft 370 kts 140°
2026-04-17 12:35 44.00758 8.95176 15291 ft 373 kts 140°
2026-04-17 12:35 43.98753 8.97501 15897 ft 377 kts 140°
2026-04-17 12:35 43.96730 8.99847 16493 ft 380 kts 140°
2026-04-17 12:37 43.82066 9.16809 20317 ft 405 kts 140°
2026-04-17 12:37 43.79892 9.19316 20843 ft 408 kts 139°
2026-04-17 12:38 43.77714 9.21823 21350 ft 411 kts 139°
2026-04-17 12:38 43.75497 9.24375 21868 ft 414 kts 139°
2026-04-17 12:38 43.73263 9.26946 22365 ft 418 kts 139°
2026-04-17 12:38 43.71049 9.29492 22853 ft 421 kts 139°
2026-04-17 12:39 43.68789 9.32088 23336 ft 424 kts 139°
2026-04-17 12:39 43.66512 9.34701 23777 ft 427 kts 139°
2026-04-17 12:39 43.64209 9.37338 24164 ft 429 kts 139°
2026-04-17 12:39 43.61899 9.39975 24556 ft 432 kts 140°
2026-04-17 12:40 43.59599 9.42598 24939 ft 434 kts 140°
2026-04-17 12:40 43.57254 9.45269 25302 ft 437 kts 140°
2026-04-17 12:40 43.54902 9.47944 25659 ft 439 kts 140°
2026-04-17 12:40 43.52536 9.50636 25997 ft 442 kts 140°
2026-04-17 12:41 43.50158 9.53346 26336 ft 444 kts 140°
2026-04-17 12:41 43.47791 9.56042 26675 ft 447 kts 140°
2026-04-17 12:41 43.45378 9.58786 27014 ft 449 kts 140°
2026-04-17 12:41 43.42958 9.61531 27343 ft 451 kts 140°
2026-04-17 12:42 43.40524 9.64283 27678 ft 453 kts 140°
2026-04-17 12:42 43.38077 9.67045 28006 ft 456 kts 140°
2026-04-17 12:42 43.35618 9.69819 28313 ft 458 kts 140°
2026-04-17 12:42 43.33148 9.72606 28629 ft 460 kts 140°
2026-04-17 12:43 43.30691 9.75378 28932 ft 462 kts 140°
2026-04-17 12:43 43.28197 9.78191 29210 ft 465 kts 140°
2026-04-17 12:43 43.25692 9.81015 29492 ft 467 kts 140°
2026-04-17 12:43 43.23172 9.83845 29773 ft 469 kts 140°
2026-04-17 12:44 43.20636 9.86686 30014 ft 472 kts 140°
2026-04-17 12:44 43.18087 9.89541 30256 ft 473 kts 140°
2026-04-17 12:44 43.15540 9.92398 30477 ft 475 kts 140°
2026-04-17 12:44 43.12968 9.95284 30680 ft 477 kts 140°
2026-04-17 12:45 43.10430 9.98129 30899 ft 478 kts 140°
2026-04-17 12:45 43.07824 10.01047 31071 ft 479 kts 140°
2026-04-17 12:45 43.05286 10.03881 31116 ft 468 kts 140°
2026-04-17 12:46 43.00295 10.09440 31113 ft 459 kts 140°
2026-04-17 12:46 42.95372 10.14915 31124 ft 457 kts 140°
2026-04-17 12:47 42.90433 10.20396 31131 ft 457 kts 140°
2026-04-17 12:47 42.85488 10.25869 31113 ft 457 kts 140°
2026-04-17 12:48 42.80557 10.31309 31101 ft 457 kts 140°
2026-04-17 12:48 42.76073 10.37374 31067 ft 454 kts 123°
2026-04-17 12:48 42.74456 10.41027 30823 ft 448 kts 113°
2026-04-17 12:49 42.73338 10.44950 30566 ft 442 kts 103°
2026-04-17 12:49 42.72736 10.49035 30327 ft 437 kts 93°
2026-04-17 12:49 42.72558 10.53157 30073 ft 434 kts 90°
2026-04-17 12:49 42.72411 10.57212 29794 ft 432 kts 90°
2026-04-17 12:50 42.72098 10.61285 29513 ft 432 kts 98°
2026-04-17 12:50 42.71290 10.65203 29236 ft 431 kts 108°
2026-04-17 12:50 42.70023 10.68899 28956 ft 431 kts 118°
2026-04-17 12:50 42.68442 10.72380 28673 ft 430 kts 120°
2026-04-17 12:51 42.66860 10.75828 28304 ft 425 kts 120°
2026-04-17 12:51 42.65323 10.79187 27786 ft 422 kts 120°
2026-04-17 12:51 42.63777 10.82566 27259 ft 419 kts 120°
2026-04-17 12:51 42.62243 10.85918 26752 ft 416 kts 120°
2026-04-17 12:52 42.60712 10.89256 26235 ft 413 kts 120°
2026-04-17 12:52 42.59194 10.92557 25754 ft 410 kts 120°
2026-04-17 12:52 42.57681 10.95833 25276 ft 408 kts 120°
2026-04-17 12:52 42.56176 10.99086 24801 ft 405 kts 120°
2026-04-17 12:53 42.54682 11.02322 24330 ft 403 kts 120°
2026-04-17 12:53 42.53217 11.05499 23861 ft 401 kts 120°
2026-04-17 12:53 42.51733 11.08714 23349 ft 399 kts 120°
2026-04-17 12:53 42.50257 11.11905 22867 ft 396 kts 120°
2026-04-17 12:54 42.48798 11.15054 22398 ft 392 kts 120°
2026-04-17 12:54 42.47343 11.18185 21931 ft 390 kts 120°
2026-04-17 12:54 42.45903 11.21280 21467 ft 387 kts 120°
2026-04-17 12:54 42.44640 11.24421 20983 ft 383 kts 110°
2026-04-17 12:55 42.43824 11.27825 20523 ft 378 kts 99°
2026-04-17 12:55 42.43399 11.31336 20043 ft 375 kts 96°
2026-04-17 12:55 42.43013 11.34825 19615 ft 372 kts 96°
2026-04-17 12:55 42.42628 11.38288 19196 ft 369 kts 96°
2026-04-17 12:56 42.42243 11.41737 18740 ft 368 kts 96°
2026-04-17 12:56 42.41857 11.45166 18208 ft 369 kts 96°
2026-04-17 12:56 42.41476 11.48538 17884 ft 363 kts 96°
2026-04-17 12:56 42.41083 11.51949 17460 ft 360 kts 98°
2026-04-17 12:57 42.40324 11.55122 17327 ft 351 kts 116°
2026-04-17 12:57 42.38949 11.57748 17156 ft 344 kts 134°
2026-04-17 12:57 42.37057 11.59695 16834 ft 341 kts 152°
2026-04-17 12:57 42.34847 11.60874 16450 ft 340 kts 161°
2026-04-17 12:58 42.32634 11.61890 16086 ft 338 kts 161°
2026-04-17 12:58 42.30413 11.62916 15763 ft 335 kts 161°
2026-04-17 12:58 42.28236 11.63931 15648 ft 326 kts 160°
2026-04-17 12:58 42.26121 11.64920 15522 ft 317 kts 161°
2026-04-17 12:59 42.24050 11.65857 15334 ft 311 kts 161°
2026-04-17 12:59 42.21997 11.66747 15056 ft 308 kts 162°
2026-04-17 12:59 42.19947 11.67619 14754 ft 307 kts 162°
2026-04-17 12:59 42.17915 11.68478 14482 ft 305 kts 162°
2026-04-17 13:00 42.15892 11.69334 14200 ft 304 kts 162°
2026-04-17 13:00 42.13879 11.70187 13908 ft 302 kts 161°
2026-04-17 13:00 42.12024 11.71436 13643 ft 296 kts 140°
2026-04-17 13:00 42.10671 11.73422 13386 ft 290 kts 118°
2026-04-17 13:01 42.09948 11.75920 13149 ft 283 kts 97°
2026-04-17 13:01 42.09936 11.78532 12913 ft 278 kts 76°
2026-04-17 13:01 42.10589 11.80940 12659 ft 272 kts 56°
2026-04-17 13:01 42.11803 11.82865 12404 ft 267 kts 37°
2026-04-17 13:02 42.13386 11.84100 12150 ft 261 kts 21°
2026-04-17 13:02 42.14509 11.84661 11975 ft 259 kts 15°
2026-04-17 13:02 42.16267 11.85062 11716 ft 255 kts
2026-04-17 13:02 42.18023 11.84859 11453 ft 253 kts 348°
2026-04-17 13:03 42.19706 11.84177 11182 ft 252 kts 343°
2026-04-17 13:03 42.21379 11.83456 10937 ft 251 kts 343°
2026-04-17 13:03 42.23027 11.82753 10698 ft 250 kts 344°
2026-04-17 13:03 42.24685 11.82044 10457 ft 249 kts 344°
2026-04-17 13:04 42.26344 11.81332 10219 ft 249 kts 344°
2026-04-17 13:04 42.27997 11.80623 9995 ft 247 kts 344°
2026-04-17 13:04 42.29634 11.80043 9869 ft 245 kts 358°
2026-04-17 13:04 42.31297 11.80405 9738 ft 242 kts 26°
2026-04-17 13:05 42.32620 11.81799 9609 ft 243 kts 52°
2026-04-17 13:05 42.33335 11.83870 9487 ft 246 kts 70°
2026-04-17 13:05 42.33851 11.86087 9355 ft 247 kts 70°
2026-04-17 13:05 42.34365 11.88302 9226 ft 245 kts 70°
2026-04-17 13:06 42.34836 11.90483 9092 ft 242 kts 79°
2026-04-17 13:06 42.34668 11.92739 8963 ft 243 kts 111°
2026-04-17 13:06 42.33666 11.94461 8983 ft 232 kts 143°
2026-04-17 13:06 42.32266 11.95306 9088 ft 212 kts 160°
2026-04-17 13:07 42.30911 11.95888 9063 ft 195 kts 160°
2026-04-17 13:07 42.29672 11.96416 9054 ft 180 kts 160°
2026-04-17 13:07 42.28478 11.96929 9080 ft 185 kts 160°
2026-04-17 13:07 42.27195 11.97482 9054 ft 203 kts 160°
2026-04-17 13:08 42.25819 11.98071 8639 ft 211 kts 160°
2026-04-17 13:08 42.24409 11.98672 8238 ft 213 kts 160°
2026-04-17 13:08 42.22989 11.99275 7873 ft 214 kts 160°
2026-04-17 13:08 42.21568 11.99878 7517 ft 214 kts 160°
2026-04-17 13:09 42.20140 12.00484 7155 ft 215 kts 161°
2026-04-17 13:09 42.18714 12.01091 6871 ft 214 kts 161°
2026-04-17 13:09 42.17292 12.01695 6532 ft 214 kts 161°
2026-04-17 13:09 42.15865 12.02303 6139 ft 216 kts 161°
2026-04-17 13:10 42.14427 12.02916 5775 ft 217 kts 160°
2026-04-17 13:10 42.13006 12.03525 5432 ft 217 kts 159°
2026-04-17 13:10 42.11674 12.04457 5090 ft 214 kts 142°
2026-04-17 13:10 42.10595 12.05816 4730 ft 211 kts 130°
2026-04-17 13:11 42.09607 12.07272 4389 ft 208 kts 131°
2026-04-17 13:11 42.08629 12.08703 4063 ft 207 kts 131°
2026-04-17 13:11 42.07668 12.10105 3725 ft 205 kts 131°
2026-04-17 13:11 42.06699 12.11518 3403 ft 205 kts 131°
2026-04-17 13:12 42.05731 12.12933 3111 ft 203 kts 131°
2026-04-17 13:12 42.03946 12.15537 3017 ft 173 kts 130°
2026-04-17 13:12 42.03151 12.16697 2985 ft 164 kts 129°
2026-04-17 13:13 42.02397 12.17802 2967 ft 157 kts 129°
2026-04-17 13:13 42.01562 12.18757 2657 ft 159 kts 147°
2026-04-17 13:13 42.00566 12.19338 2594 ft 156 kts 158°
2026-04-17 13:13 41.99527 12.19835 2525 ft 161 kts 161°
2026-04-17 13:14 41.98477 12.20302 2497 ft 158 kts 162°
2026-04-17 13:14 41.97415 12.20759 2484 ft 160 kts 161°
2026-04-17 13:14 41.96354 12.21209 2370 ft 159 kts 162°
2026-04-17 13:14 41.95295 12.21656 2168 ft 159 kts 163°
2026-04-17 13:15 41.94243 12.22100 1987 ft 157 kts 163°
2026-04-17 13:15 41.93217 12.22531 1780 ft 152 kts 165°
2026-04-17 13:15 41.92205 12.22956 1590 ft 152 kts 165°
2026-04-17 13:15 41.91212 12.23373 1387 ft 150 kts 165°
2026-04-17 13:16 41.90218 12.23791 1188 ft 150 kts 164°
2026-04-17 13:16 41.89221 12.24209 1007 ft 148 kts 166°
2026-04-17 13:16 41.88247 12.24618 816 ft 146 kts 167°
2026-04-17 13:16 41.87288 12.25020 627 ft 143 kts 166°
2026-04-17 13:17 41.86331 12.25421 418 ft 146 kts 168°
2026-04-17 13:17 41.85357 12.25829 241 ft 147 kts 167°
2026-04-17 13:17 41.84385 12.26237 38 ft 145 kts 167°
2026-04-17 13:17 41.83522 12.26598 17 ft 108 kts 162°
2026-04-17 13:18 41.83005 12.26814 15 ft 42 kts 161°
2026-04-17 13:18 41.82845 12.26861 16 ft 10 kts 180°
2026-04-17 13:18 41.82770 12.26866 16 ft 17 kts 177°
2026-04-17 13:18 41.82616 12.26841 15 ft 24 kts 200°
2026-04-17 13:19 41.82545 12.26816 15 ft 0 kts 191°
2026-04-17 13:19 41.82529 12.26812 15 ft 9 kts 191°
2026-04-17 13:19 41.82413 12.26782 15 ft 23 kts 188°
2026-04-17 13:19 41.82256 12.26808 15 ft 24 kts 163°
2026-04-17 13:20 41.82094 12.26875 15 ft 25 kts 161°
2026-04-17 13:20 41.81925 12.26946 15 ft 26 kts 162°
2026-04-17 13:20 41.81750 12.27020 15 ft 27 kts 162°
2026-04-17 13:20 41.81572 12.27094 15 ft 21 kts 163°
2026-04-17 13:21 41.81434 12.27151 15 ft 21 kts 163°
2026-04-17 13:21 41.81289 12.27208 15 ft 22 kts 163°
2026-04-17 13:21 41.81138 12.27276 15 ft 24 kts 163°
2026-04-17 13:21 41.80976 12.27342 15 ft 25 kts 163°
2026-04-17 13:22 41.80801 12.27325 15 ft 26 kts 191°
2026-04-17 13:22 41.80674 12.27263 16 ft 18 kts 232°
2026-04-17 13:22 41.80627 12.27102 15 ft 19 kts 248°
2026-04-17 13:22 41.80585 12.26958 16 ft 14 kts 249°
2026-04-17 13:23 41.80547 12.26829 15 ft 16 kts 250°
2026-04-17 13:23 41.80506 12.26683 15 ft 17 kts 250°
2026-04-17 13:23 41.80464 12.26523 16 ft 19 kts 251°
2026-04-17 13:23 41.80426 12.26406 15 ft 13 kts 232°
2026-04-17 13:24 41.80341 12.26376 15 ft 13 kts 165°
2026-04-17 13:24 41.80257 12.26410 17 ft 12 kts 170°
2026-04-17 13:24 41.80186 12.26387 16 ft 10 kts 208°
2026-04-17 13:24 41.80124 12.26349 15 ft 14 kts 205°
2026-04-17 13:25 41.79970 12.26254 16 ft 29 kts 205°
2026-04-17 13:25 41.79848 12.26177 15 ft 17 kts 211°
2026-04-17 13:25 41.79852 12.26032 15 ft 18 kts 295°
2026-04-17 13:25 41.79899 12.25895 15 ft 11 kts 294°
2026-04-17 13:26 41.79866 12.25813 15 ft 12 kts 212°
2026-04-17 13:26 41.79790 12.25757 17 ft 13 kts 203°
2026-04-17 13:26 41.79753 12.25711 15 ft 5 kts 275°
2026-04-17 13:26 41.79770 12.25668 15 ft 2 kts 294°
2026-04-17 13:27 41.79773 12.25658 15 ft 0 kts 294°